Spokane Fairchild, WA
on Thursday, November 22, 2012

Thursday
Previous Day Next Day
Daily Summary
 ActualAverage (KGEG)Record (KGEG)
Temperature
Mean Temperature °F 33°F  
Max Temperature 40°F 38°F 57°F (1933)
Min Temperature 28°F 28°F -5°F (2003)
Degree Days
Heating Degree Days 31 32  
Month to date heating degree days 611  
Since 1 July heating degree days 1399  
Cooling Degree Days 0 0  
Month to date cooling degree days 0  
Year to date cooling degree days 450  
Moisture
Dew Point 32°F   
Average Humidity 99    
Maximum Humidity 100    
Minimum Humidity 77    
Precipitation
Precipitation 0.00 in 0.08 in 1.03 in (1901)
Month to date precipitation 1.64  
Year to date precipitation 13.60  
Snow
Snow 0.00 in 0.40 in 7.50 in (2010)
Month to date snowfall 4.4  
Since 1 July snowfall 4.5  
Since 1 September snowfall 4.5  
Snow Depth in   
Wind
Wind Speed 7 mph   
Max Wind Speed 13 mph   
Max Gust Speed mph   
Visibility 10 miles   
Events     

Key: T is trace of precipitation, MM is missing value
Source: NWS Daily Summary
Time(PST)TemperatureDew PointHumidity Pressure Visibility Wind DirectionWind SpeedGust SpeedPrecipitationEvents Conditions
12:58 AM 30.9°F 30.9°F 100% 30.24 in 10.0 miles SSW 12.7 mph - N/A   Clear
1:58 AM 30.2°F 30.2°F 100% 30.28 in 10.0 miles South 9.2 mph - N/A   Clear
2:58 AM 29.5°F 29.5°F 100% 30.31 in 10.0 miles SSW 10.4 mph - N/A   Clear
3:58 AM 28.6°F 28.6°F 100% 30.33 in 10.0 miles SSW 8.1 mph - N/A   Clear
4:22 AM 28.4°F 28.4°F 100% 30.27 in 10.0 miles SE 3.5 mph - N/A   Partly Cloudy
4:39 AM 28.4°F 28.4°F 100% 30.29 in 10.0 miles SE 3.5 mph - N/A   Mostly Cloudy
4:50 AM 28.4°F 28.4°F 100% 30.29 in 10.0 miles SSE 2.3 mph - N/A   Mostly Cloudy
4:55 AM 28.4°F 28.4°F 100% 30.30 in 10.0 miles ESE 3.5 mph - N/A   Scattered Clouds
4:58 AM 28.4°F 28.4°F 100% 30.38 in 10.0 miles SE 4.6 mph - 0.00 in   Scattered Clouds
5:03 AM 28.4°F 28.4°F 100% 30.30 in 10.0 miles SSE 6.9 mph - N/A   Mostly Cloudy
5:58 AM 28.9°F 28.9°F 100% 30.41 in 10.0 miles SSE 6.9 mph - N/A   Overcast
6:03 AM 28.4°F 28.4°F 100% 30.33 in 10.0 miles SSE 8.1 mph - N/A   Overcast
6:53 AM 30.2°F 30.2°F 100% 30.35 in 10.0 miles South 6.9 mph - N/A   Overcast
6:58 AM 29.5°F 29.5°F 100% 30.43 in 10.0 miles South 8.1 mph - N/A   Overcast
7:18 AM 30.2°F 30.2°F 100% 30.36 in 10.0 miles SSE 6.9 mph - N/A   Mostly Cloudy
7:28 AM 30.2°F 30.2°F 100% 30.37 in 10.0 miles SSE 5.8 mph - N/A   Mostly Cloudy
7:40 AM 30.2°F 30.2°F 100% 30.37 in 10.0 miles SSE 5.8 mph - N/A   Mostly Cloudy
7:50 AM 30.2°F 30.2°F 100% 30.37 in 10.0 miles SSE 5.8 mph - N/A   Mostly Cloudy
7:52 AM 30.2°F 30.2°F 100% 30.37 in 10.0 miles SSE 6.9 mph - N/A   Mostly Cloudy
7:58 AM 29.8°F 29.8°F 100% 30.46 in 10.0 miles South 6.9 mph - 0.00 in   Mostly Cloudy
8:08 AM 30.2°F 30.2°F 100% 30.38 in 10.0 miles South 5.8 mph - N/A   Scattered Clouds
8:58 AM 31.6°F 31.6°F 100% 30.48 in 10.0 miles South 8.1 mph - N/A   Clear
9:58 AM 33.3°F 33.3°F 100% 30.51 in 10.0 miles SSE 4.6 mph - N/A   Clear
10:19 AM 33.8°F 33.8°F 100% 30.42 in 10.0 miles East 4.6 mph - N/A   Clear
10:29 AM 33.8°F 33.8°F 100% 30.42 in 10.0 miles Variable 3.5 mph - N/A   Clear
10:34 AM 35.6°F 35.6°F 100% 30.42 in 10.0 miles SE 4.6 mph - N/A   Clear
10:49 AM 35.6°F 35.6°F 100% 30.42 in 10.0 miles South 4.6 mph - N/A   Partly Cloudy
10:58 AM 35.6°F 35.6°F 100% 30.50 in 10.0 miles SSE 5.8 mph - 0.00 in   Clear
11:38 AM 37.4°F 37.4°F 100% 30.42 in 10.0 miles SE 5.8 mph - N/A   Partly Cloudy
11:55 AM 37.4°F 37.4°F 100% 30.43 in 10.0 miles SSE 5.8 mph - N/A   Partly Cloudy
11:58 AM 37.6°F 37.6°F 100% 30.50 in 10.0 miles SE 8.1 mph - 0.00 in   Partly Cloudy
12:58 PM 38.8°F 36.7°F 92% 30.48 in 10.0 miles SSE 5.8 mph - N/A   Clear
1:58 PM 40.1°F 33.8°F 78% 30.49 in 10.0 miles ESE 8.1 mph - N/A   Clear
2:58 PM 39.9°F 33.3°F 77% 30.48 in 10.0 miles SE 8.1 mph - N/A   Scattered Clouds
3:58 PM 36.1°F 34.7°F 94% 30.49 in 10.0 miles East 3.5 mph - N/A   Scattered Clouds
4:58 PM 34.2°F 34.2°F 100% 30.49 in 10.0 miles NNE 6.9 mph - N/A   Clear
5:58 PM 33.6°F 33.6°F 100% 30.47 in 10.0 miles NE 8.1 mph - N/A   Clear
6:58 PM 34.9°F 34.9°F 100% 30.47 in 10.0 miles NE 4.6 mph - N/A   Overcast
7:58 PM 33.6°F 33.6°F 100% 30.45 in 10.0 miles NE 8.1 mph - N/A   Overcast
8:58 PM 32.5°F 32.5°F 100% 30.44 in 10.0 miles ENE 8.1 mph - N/A   Clear
9:58 PM 32.4°F 32.4°F 100% 30.44 in 10.0 miles NNE 9.2 mph - N/A   Partly Cloudy
10:58 PM 32.2°F 32.2°F 100% 30.42 in 10.0 miles ENE 8.1 mph - N/A   Overcast
11:58 PM 32.7°F 32.7°F 100% 30.40 in 10.0 miles ENE 9.2 mph - N/A   Overcast
Moon Phase
Nov. 22 Nov. 28 Dec. 06 Dec. 13 Dec. 20
Sunrise:07:06 AM (PST) Moon Rise:01:13 PM (PST)11/22
Sunset:04:06 PM (PST) Moon Set:01:10 AM (PST)11/22

Copyright © 2014 The Weather Underground, Inc.